Homer, AK

12:53 AM AKDT on July 30, 2016 (GMT -0800)
Homer

Weather History for PAHO - December, 2012

Change the Weather History Date:

Saturday, December 8, 2012

  Actual Average Record
Temperature  
Mean Temperature 32 °F -  
Max Temperature 41 °F 30 °F 51 °F (2014)
Min Temperature 23 °F 18 °F -9 °F (1975)
Degree Days  
Heating Degree Days 33    
Moisture  
Dew Point 26 °F    
Average Humidity 74    
Maximum Humidity 85    
Minimum Humidity 60    
Precipitation  
Precipitation 0.10 in - - ()
Sea Level Pressure  
Sea Level Pressure 29.45 in    
Wind  
Wind Speed 6 mph (ENE)    
Max Wind Speed 20 mph    
Max Gust Speed 33 mph    
Visibility 9 miles    
Events Rain    
Averages and records for this station are not official NWS values.
T = Trace of Precipitation, MM = Missing Value Source: NWS Daily Summary

Daily Weather History Graph

Daily Weather History Graph

Search for Another Location

Airport or City:

Trip Planner

Search our weather history database for the weather conditions in past years. The results will help you decide how hot, cold, wet, or windy it might be!

Date:

Astronomy

Dec. 08, 2012 Rise Set
Actual Time 9:51 AM AKST 4:04 PM AKST
Civil Twilight 8:56 AM AKST 4:59 PM AKST
Nautical Twilight 8:01 AM AKST 5:54 PM AKST
Astronomical Twilight 7:10 AM AKST 6:45 PM AKST
Moon 3:20 AM AKST (12/8) 1:41 PM AKST (12/8)
Length of Visible Light 8h 03m
Length of Day
6h 12m
Waning Crescent, 27% of the Moon is Illuminated
Dec 8
Waning Crescent
Dec 12
New
Dec 19
First Quarter
Dec 28
Full
Jan 4
Last Quarter

Hourly Weather History & Observations

Time (AKST) Temp. Windchill Dew Point Humidity Pressure Visibility Wind Dir Wind Speed Gust Speed Precip Events Conditions
12:53 AM 23.0 °F 17.0 °F 18.0 °F 81% 29.84 in 10.0 mi NE 4.6 mph - N/A   Mostly Cloudy
1:53 AM 24.1 °F 19.7 °F 19.0 °F 81% 29.83 in 10.0 mi ENE 3.5 mph - N/A   Overcast
3:53 AM 25.0 °F - 19.9 °F 81% 29.78 in 10.0 mi Calm Calm - N/A   Overcast
4:53 AM 25.0 °F - 19.9 °F 81% 29.75 in 10.0 mi Calm Calm - N/A   Overcast
5:53 AM 26.1 °F - 21.0 °F 81% 29.72 in 10.0 mi Calm Calm - N/A   Overcast
6:53 AM 27.0 °F 20.5 °F 21.0 °F 78% 29.69 in 10.0 mi NE 5.8 mph - N/A   Overcast
7:53 AM 28.0 °F 21.7 °F 21.0 °F 75% 29.66 in 10.0 mi East 5.8 mph - N/A   Overcast
8:53 AM 32.0 °F - 21.9 °F 66% 29.62 in 10.0 mi Calm Calm - N/A   Overcast
9:53 AM 35.1 °F 30.1 °F 24.1 °F 64% 29.58 in 10.0 mi ENE 5.8 mph - N/A   Overcast
10:53 AM 37.9 °F 30.9 °F 25.0 °F 60% 29.55 in 10.0 mi NE 10.4 mph - N/A   Overcast
11:53 AM 39.0 °F 29.3 °F 27.0 °F 62% 29.48 in 10.0 mi ENE 19.6 mph 28.8 mph N/A   Overcast
12:53 PM 39.0 °F 29.9 °F 28.0 °F 65% 29.42 in 10.0 mi East 17.3 mph 33.4 mph N/A   Overcast
1:53 PM 39.0 °F 29.9 °F 28.0 °F 65% 29.34 in 10.0 mi ENE 17.3 mph 28.8 mph N/A   Overcast
2:53 PM 39.0 °F 32.3 °F 30.0 °F 70% 29.32 in 10.0 mi East 10.4 mph 29.9 mph 0.00 in Rain Light Rain
3:17 PM 37.4 °F 34.9 °F 30.2 °F 75% 29.32 in 4.0 mi East 3.5 mph - 0.00 in Rain Light Rain
3:53 PM 37.0 °F 31.6 °F 32.0 °F 82% 29.27 in 6.0 mi ENE 6.9 mph - 0.02 in Rain Light Rain
4:53 PM 37.0 °F 29.3 °F 32.0 °F 82% 29.24 in 7.0 mi NE 11.5 mph - 0.02 in Rain Light Rain
5:53 PM 37.9 °F 30.9 °F 32.0 °F 79% 29.21 in 7.0 mi East 10.4 mph 17.3 mph 0.03 in Rain Light Rain
6:53 PM 39.0 °F 32.8 °F 30.0 °F 70% 29.17 in 10.0 mi East 9.2 mph - 0.01 in Rain Light Rain
7:53 PM 41.0 °F 35.2 °F 28.0 °F 60% 29.14 in 10.0 mi ENE 9.2 mph - 0.00 in   Overcast
8:53 PM 39.9 °F - 28.9 °F 65% 29.15 in 10.0 mi Calm Calm - N/A   Overcast
9:53 PM 37.0 °F 33.3 °F 30.9 °F 79% 29.18 in 10.0 mi West 4.6 mph - 0.00 in   Overcast
10:53 PM 37.0 °F 33.3 °F 32.0 °F 82% 29.21 in 10.0 mi NW 4.6 mph - 0.02 in   Overcast
11:53 PM 35.1 °F 28.6 °F 30.9 °F 85% 29.21 in 10.0 mi ENE 8.1 mph - 0.00 in   Mostly Cloudy